owner,sensor,date,latitude,longitude,air_temperature,qcFlag 
COMPS,ioos:station:USF.COMPS:SHP:1,2011-02-01T00:00:00Z,30.0600,-84.2910,14.8,1111122 
COMPS,ioos:station:USF.COMPS:SHP:1,2011-02-01T01:00:00Z,30.0600,-84.2910,14.9,1111122 
COMPS,ioos:station:USF.COMPS:SHP:1,2011-02-01T02:00:00Z,30.0600,-84.2910,14.9,1111122 
COMPS,ioos:station:USF.COMPS:SHP:1,2011-02-01T03:00:00Z,30.0600,-84.2910,14.4,1111122 
COMPS,ioos:station:USF.COMPS:SHP:1,2011-02-01T03:06:00Z,30.0600,-84.2910,14.62,1111122 
COMPS,ioos:station:USF.COMPS:SHP:1,2011-02-01T03:12:00Z,30.0600,-84.2910,14.55,1111122 
COMPS,ioos:station:USF.COMPS:SHP:1,2011-02-01T03:18:00Z,30.0600,-84.2910,14.49,1111122 
COMPS,ioos:station:USF.COMPS:SHP:1,2011-02-01T03:24:00Z,30.0600,-84.2910,14.59,1111122 
COMPS,ioos:station:USF.COMPS:SHP:1,2011-02-01T03:30:00Z,30.0600,-84.2910,14.54,1111122 
COMPS,ioos:station:USF.COMPS:SHP:1,2011-02-01T03:36:00Z,30.0600,-84.2910,14.6,1111122 
COMPS,ioos:station:USF.COMPS:SHP:1,2011-02-01T03:42:00Z,30.0600,-84.2910,14.45,1111122 
COMPS,ioos:station:USF.COMPS:SHP:1,2011-02-01T03:48:00Z,30.0600,-84.2910,14.16,1111122 
COMPS,ioos:station:USF.COMPS:SHP:1,2011-02-01T03:54:00Z,30.0600,-84.2910,14.11,1111122 
COMPS,ioos:station:USF.COMPS:SHP:1,2011-02-01T04:00:00Z,30.0600,-84.2910,14.1,1111122 
COMPS,ioos:station:USF.COMPS:SHP:1,2011-02-01T05:00:00Z,30.0600,-84.2910,14.2,1111122 
COMPS,ioos:station:USF.COMPS:SHP:1,2011-02-01T06:00:00Z,30.0600,-84.2910,14.9,1111122 
COMPS,ioos:station:USF.COMPS:SHP:1,2011-02-01T07:00:00Z,30.0600,-84.2910,15.0,1111122 
COMPS,ioos:station:USF.COMPS:SHP:1,2011-02-01T08:00:00Z,30.0600,-84.2910,14.2,1111122 
COMPS,ioos:station:USF.COMPS:SHP:1,2011-02-01T09:00:00Z,30.0600,-84.2910,14.3,1111122 
COMPS,ioos:station:USF.COMPS:SHP:1,2011-02-01T09:06:00Z,30.0600,-84.2910,14.27,1111122 
COMPS,ioos:station:USF.COMPS:SHP:1,2011-02-01T09:12:00Z,30.0600,-84.2910,14.25,1111122 
COMPS,ioos:station:USF.COMPS:SHP:1,2011-02-01T09:18:00Z,30.0600,-84.2910,14.21,1111122 
COMPS,ioos:station:USF.COMPS:SHP:1,2011-02-01T09:24:00Z,30.0600,-84.2910,14.18,1111122 
COMPS,ioos:station:USF.COMPS:SHP:1,2011-02-01T09:30:00Z,30.0600,-84.2910,13.97,1111122 
COMPS,ioos:station:USF.COMPS:SHP:1,2011-02-01T09:36:00Z,30.0600,-84.2910,13.98,1111122 
COMPS,ioos:station:USF.COMPS:SHP:1,2011-02-01T09:42:00Z,30.0600,-84.2910,14.12,1111122 
COMPS,ioos:station:USF.COMPS:SHP:1,2011-02-01T09:48:00Z,30.0600,-84.2910,14.23,1111122 
COMPS,ioos:station:USF.COMPS:SHP:1,2011-02-01T09:54:00Z,30.0600,-84.2910,14.24,1111122 
COMPS,ioos:station:USF.COMPS:SHP:1,2011-02-01T10:00:00Z,30.0600,-84.2910,14.2,1111122 
COMPS,ioos:station:USF.COMPS:SHP:1,2011-02-01T11:00:00Z,30.0600,-84.2910,14.0,1111122 
COMPS,ioos:station:USF.COMPS:SHP:1,2011-02-01T12:00:00Z,30.0600,-84.2910,13.8,1111122 
COMPS,ioos:station:USF.COMPS:SHP:1,2011-02-01T13:00:00Z,30.0600,-84.2910,13.9,1111122 
COMPS,ioos:station:USF.COMPS:SHP:1,2011-02-01T13:06:00Z,30.0600,-84.2910,14.27,1111122 
COMPS,ioos:station:USF.COMPS:SHP:1,2011-02-01T13:12:00Z,30.0600,-84.2910,14.29,1111122 
COMPS,ioos:station:USF.COMPS:SHP:1,2011-02-01T13:18:00Z,30.0600,-84.2910,14.24,1111122 
COMPS,ioos:station:USF.COMPS:SHP:1,2011-02-01T13:24:00Z,30.0600,-84.2910,14.34,1111122 
COMPS,ioos:station:USF.COMPS:SHP:1,2011-02-01T13:30:00Z,30.0600,-84.2910,14.52,1111122 
COMPS,ioos:station:USF.COMPS:SHP:1,2011-02-01T13:36:00Z,30.0600,-84.2910,14.59,1111122 
COMPS,ioos:station:USF.COMPS:SHP:1,2011-02-01T13:42:00Z,30.0600,-84.2910,14.85,1111122 
COMPS,ioos:station:USF.COMPS:SHP:1,2011-02-01T13:48:00Z,30.0600,-84.2910,14.74,1111122 
COMPS,ioos:station:USF.COMPS:SHP:1,2011-02-01T13:54:00Z,30.0600,-84.2910,14.83,1111122 
COMPS,ioos:station:USF.COMPS:SHP:1,2011-02-01T14:00:00Z,30.0600,-84.2910,14.8,1111122 
COMPS,ioos:station:USF.COMPS:SHP:1,2011-02-01T15:00:00Z,30.0600,-84.2910,16.3,1111122 
COMPS,ioos:station:USF.COMPS:SHP:1,2011-02-01T16:00:00Z,30.0600,-84.2910,16.0,1111122 
COMPS,ioos:station:USF.COMPS:SHP:1,2011-02-01T16:06:00Z,30.0600,-84.2910,15.3,1111122 
COMPS,ioos:station:USF.COMPS:SHP:1,2011-02-01T16:12:00Z,30.0600,-84.2910,15.12,1111122 
COMPS,ioos:station:USF.COMPS:SHP:1,2011-02-01T16:18:00Z,30.0600,-84.2910,15.19,1111122 
COMPS,ioos:station:USF.COMPS:SHP:1,2011-02-01T16:24:00Z,30.0600,-84.2910,15.26,1111122 
COMPS,ioos:station:USF.COMPS:SHP:1,2011-02-01T16:30:00Z,30.0600,-84.2910,15.29,1111122 
COMPS,ioos:station:USF.COMPS:SHP:1,2011-02-01T16:36:00Z,30.0600,-84.2910,15.27,1111122 
COMPS,ioos:station:USF.COMPS:SHP:1,2011-02-01T16:42:00Z,30.0600,-84.2910,15.3,1111122 
COMPS,ioos:station:USF.COMPS:SHP:1,2011-02-01T16:48:00Z,30.0600,-84.2910,15.36,1111122 
COMPS,ioos:station:USF.COMPS:SHP:1,2011-02-01T16:54:00Z,30.0600,-84.2910,15.27,1111122 
COMPS,ioos:station:USF.COMPS:SHP:1,2011-02-01T17:00:00Z,30.0600,-84.2910,15.3,1111122 
COMPS,ioos:station:USF.COMPS:SHP:1,2011-02-01T18:00:00Z,30.0600,-84.2910,15.6,1111122 
COMPS,ioos:station:USF.COMPS:SHP:1,2011-02-01T19:00:00Z,30.0600,-84.2910,14.9,1111122 
COMPS,ioos:station:USF.COMPS:SHP:1,2011-02-01T20:00:00Z,30.0600,-84.2910,14.7,1111122 
COMPS,ioos:station:USF.COMPS:SHP:1,2011-02-01T20:06:00Z,30.0600,-84.2910,14.75,1111122 
COMPS,ioos:station:USF.COMPS:SHP:1,2011-02-01T20:12:00Z,30.0600,-84.2910,14.73,1111122 
COMPS,ioos:station:USF.COMPS:SHP:1,2011-02-01T20:18:00Z,30.0600,-84.2910,14.51,1111122 
COMPS,ioos:station:USF.COMPS:SHP:1,2011-02-01T20:24:00Z,30.0600,-84.2910,14.49,1111122 
COMPS,ioos:station:USF.COMPS:SHP:1,2011-02-01T20:30:00Z,30.0600,-84.2910,14.39,1111122 
COMPS,ioos:station:USF.COMPS:SHP:1,2011-02-01T20:36:00Z,30.0600,-84.2910,14.51,1111122 
COMPS,ioos:station:USF.COMPS:SHP:1,2011-02-01T20:42:00Z,30.0600,-84.2910,14.46,1111122 
COMPS,ioos:station:USF.COMPS:SHP:1,2011-02-01T20:48:00Z,30.0600,-84.2910,14.48,1111122 
COMPS,ioos:station:USF.COMPS:SHP:1,2011-02-01T20:54:00Z,30.0600,-84.2910,14.58,1111122 
COMPS,ioos:station:USF.COMPS:SHP:1,2011-02-01T21:00:00Z,30.0600,-84.2910,14.6,1111122 
COMPS,ioos:station:USF.COMPS:SHP:1,2011-02-01T22:00:00Z,30.0600,-84.2910,14.9,1111122 
COMPS,ioos:station:USF.COMPS:SHP:1,2011-02-01T23:00:00Z,30.0600,-84.2910,15.0,1111122 
COMPS,ioos:station:USF.COMPS:SHP:1,2011-02-01T23:06:00Z,30.0600,-84.2910,15.19,1111122 
COMPS,ioos:station:USF.COMPS:SHP:1,2011-02-01T23:12:00Z,30.0600,-84.2910,15.07,1111122 
COMPS,ioos:station:USF.COMPS:SHP:1,2011-02-01T23:18:00Z,30.0600,-84.2910,15.1,1111122 
COMPS,ioos:station:USF.COMPS:SHP:1,2011-02-01T23:24:00Z,30.0600,-84.2910,15.07,1111122 
COMPS,ioos:station:USF.COMPS:SHP:1,2011-02-01T23:30:00Z,30.0600,-84.2910,15.18,1111122 
COMPS,ioos:station:USF.COMPS:SHP:1,2011-02-01T23:36:00Z,30.0600,-84.2910,15.15,1111122 
COMPS,ioos:station:USF.COMPS:SHP:1,2011-02-01T23:42:00Z,30.0600,-84.2910,15.22,1111122 
COMPS,ioos:station:USF.COMPS:SHP:1,2011-02-01T23:48:00Z,30.0600,-84.2910,15.24,1111122 
COMPS,ioos:station:USF.COMPS:SHP:1,2011-02-01T23:54:00Z,30.0600,-84.2910,15.42,1111122 
COMPS,ioos:station:USF.COMPS:SHP:1,2011-02-02T00:00:00Z,30.0600,-84.2910,15.4,1111122 
COMPS,ioos:station:USF.COMPS:SHP:1,2011-02-02T01:00:00Z,30.0600,-84.2910,15.6,1111122 
COMPS,ioos:station:USF.COMPS:SHP:1,2011-02-02T02:00:00Z,30.0600,-84.2910,16.0,1111122 
COMPS,ioos:station:USF.COMPS:SHP:1,2011-02-02T02:06:00Z,30.0600,-84.2910,16.09,1111122 
COMPS,ioos:station:USF.COMPS:SHP:1,2011-02-02T02:12:00Z,30.0600,-84.2910,16.12,1111122 
COMPS,ioos:station:USF.COMPS:SHP:1,2011-02-02T02:18:00Z,30.0600,-84.2910,16.03,1111122 
COMPS,ioos:station:USF.COMPS:SHP:1,2011-02-02T02:24:00Z,30.0600,-84.2910,16.11,1111122 
COMPS,ioos:station:USF.COMPS:SHP:1,2011-02-02T02:30:00Z,30.0600,-84.2910,16.08,1111122 
COMPS,ioos:station:USF.COMPS:SHP:1,2011-02-02T02:36:00Z,30.0600,-84.2910,16.17,1111122 
COMPS,ioos:station:USF.COMPS:SHP:1,2011-02-02T02:42:00Z,30.0600,-84.2910,16.28,1111122 
COMPS,ioos:station:USF.COMPS:SHP:1,2011-02-02T02:48:00Z,30.0600,-84.2910,16.3,1111122 
COMPS,ioos:station:USF.COMPS:SHP:1,2011-02-02T02:54:00Z,30.0600,-84.2910,16.26,1111122 
COMPS,ioos:station:USF.COMPS:SHP:1,2011-02-02T03:00:00Z,30.0600,-84.2910,16.3,1111122 
COMPS,ioos:station:USF.COMPS:SHP:1,2011-02-02T03:06:00Z,30.0600,-84.2910,16.25,1111122 
COMPS,ioos:station:USF.COMPS:SHP:1,2011-02-02T03:12:00Z,30.0600,-84.2910,16.31,1111122 
COMPS,ioos:station:USF.COMPS:SHP:1,2011-02-02T03:18:00Z,30.0600,-84.2910,16.36,1111122 
COMPS,ioos:station:USF.COMPS:SHP:1,2011-02-02T03:24:00Z,30.0600,-84.2910,16.28,1111122 
COMPS,ioos:station:USF.COMPS:SHP:1,2011-02-02T03:30:00Z,30.0600,-84.2910,16.27,1111122 
COMPS,ioos:station:USF.COMPS:SHP:1,2011-02-02T03:36:00Z,30.0600,-84.2910,16.31,1111122 
COMPS,ioos:station:USF.COMPS:SHP:1,2011-02-02T03:42:00Z,30.0600,-84.2910,16.42,1111122 
COMPS,ioos:station:USF.COMPS:SHP:1,2011-02-02T03:48:00Z,30.0600,-84.2910,16.28,1111122 
COMPS,ioos:station:USF.COMPS:SHP:1,2011-02-02T03:54:00Z,30.0600,-84.2910,16.26,1111122 
COMPS,ioos:station:USF.COMPS:SHP:1,2011-02-02T04:00:00Z,30.0600,-84.2910,16.3,1111122 
COMPS,ioos:station:USF.COMPS:SHP:1,2011-02-02T06:00:00Z,30.0600,-84.2910,17.0,1111122 
COMPS,ioos:station:USF.COMPS:SHP:1,2011-02-02T07:00:00Z,30.0600,-84.2910,18.7,1111122 
COMPS,ioos:station:USF.COMPS:SHP:1,2011-02-02T07:06:00Z,30.0600,-84.2910,17.57,1111122 
COMPS,ioos:station:USF.COMPS:SHP:1,2011-02-02T07:12:00Z,30.0600,-84.2910,17.19,1111122 
COMPS,ioos:station:USF.COMPS:SHP:1,2011-02-02T07:18:00Z,30.0600,-84.2910,16.81,1111122 
COMPS,ioos:station:USF.COMPS:SHP:1,2011-02-02T07:24:00Z,30.0600,-84.2910,16.78,1111122 
COMPS,ioos:station:USF.COMPS:SHP:1,2011-02-02T07:30:00Z,30.0600,-84.2910,16.55,1111122 
COMPS,ioos:station:USF.COMPS:SHP:1,2011-02-02T07:36:00Z,30.0600,-84.2910,16.41,1111122 
COMPS,ioos:station:USF.COMPS:SHP:1,2011-02-02T07:42:00Z,30.0600,-84.2910,16.63,1111122 
COMPS,ioos:station:USF.COMPS:SHP:1,2011-02-02T07:48:00Z,30.0600,-84.2910,16.78,1111122 
COMPS,ioos:station:USF.COMPS:SHP:1,2011-02-02T07:54:00Z,30.0600,-84.2910,16.91,1111122 
COMPS,ioos:station:USF.COMPS:SHP:1,2011-02-02T08:00:00Z,30.0600,-84.2910,16.9,1111122 
COMPS,ioos:station:USF.COMPS:SHP:1,2011-02-02T09:00:00Z,30.0600,-84.2910,16.9,1111122 
COMPS,ioos:station:USF.COMPS:SHP:1,2011-02-02T10:00:00Z,30.0600,-84.2910,17.0,1111122 
COMPS,ioos:station:USF.COMPS:SHP:1,2011-02-02T10:06:00Z,30.0600,-84.2910,16.85,1111122 
COMPS,ioos:station:USF.COMPS:SHP:1,2011-02-02T10:12:00Z,30.0600,-84.2910,16.86,1111122 
COMPS,ioos:station:USF.COMPS:SHP:1,2011-02-02T10:18:00Z,30.0600,-84.2910,16.9,1111122 
COMPS,ioos:station:USF.COMPS:SHP:1,2011-02-02T10:24:00Z,30.0600,-84.2910,16.9,1111122 
COMPS,ioos:station:USF.COMPS:SHP:1,2011-02-02T10:30:00Z,30.0600,-84.2910,16.7,1111122 
COMPS,ioos:station:USF.COMPS:SHP:1,2011-02-02T10:36:00Z,30.0600,-84.2910,17.19,1111122 
COMPS,ioos:station:USF.COMPS:SHP:1,2011-02-02T10:42:00Z,30.0600,-84.2910,17.46,1111122 
COMPS,ioos:station:USF.COMPS:SHP:1,2011-02-02T10:48:00Z,30.0600,-84.2910,17.01,1111122 
COMPS,ioos:station:USF.COMPS:SHP:1,2011-02-02T10:54:00Z,30.0600,-84.2910,16.64,1111122 
COMPS,ioos:station:USF.COMPS:SHP:1,2011-02-02T11:00:00Z,30.0600,-84.2910,16.6,1111122 
COMPS,ioos:station:USF.COMPS:SHP:1,2011-02-02T12:00:00Z,30.0600,-84.2910,16.7,1111122 
COMPS,ioos:station:USF.COMPS:SHP:1,2011-02-02T13:00:00Z,30.0600,-84.2910,16.1,1111122 
COMPS,ioos:station:USF.COMPS:SHP:1,2011-02-02T14:00:00Z,30.0600,-84.2910,15.4,1111122 
COMPS,ioos:station:USF.COMPS:SHP:1,2011-02-02T14:06:00Z,30.0600,-84.2910,15.69,1111122 
COMPS,ioos:station:USF.COMPS:SHP:1,2011-02-02T14:12:00Z,30.0600,-84.2910,15.68,1111122 
COMPS,ioos:station:USF.COMPS:SHP:1,2011-02-02T14:18:00Z,30.0600,-84.2910,15.76,1111122 
COMPS,ioos:station:USF.COMPS:SHP:1,2011-02-02T14:24:00Z,30.0600,-84.2910,15.81,1111122 
COMPS,ioos:station:USF.COMPS:SHP:1,2011-02-02T14:30:00Z,30.0600,-84.2910,16.03,1111122 
COMPS,ioos:station:USF.COMPS:SHP:1,2011-02-02T14:36:00Z,30.0600,-84.2910,15.98,1111122 
COMPS,ioos:station:USF.COMPS:SHP:1,2011-02-02T14:42:00Z,30.0600,-84.2910,16.1,1111122 
COMPS,ioos:station:USF.COMPS:SHP:1,2011-02-02T14:48:00Z,30.0600,-84.2910,16.04,1111122 
COMPS,ioos:station:USF.COMPS:SHP:1,2011-02-02T14:54:00Z,30.0600,-84.2910,16.26,1111122 
COMPS,ioos:station:USF.COMPS:SHP:1,2011-02-02T15:00:00Z,30.0600,-84.2910,16.3,1111122 
COMPS,ioos:station:USF.COMPS:SHP:1,2011-02-02T16:00:00Z,30.0600,-84.2910,17.4,1111122 
COMPS,ioos:station:USF.COMPS:SHP:1,2011-02-02T17:00:00Z,30.0600,-84.2910,18.3,1111122 
COMPS,ioos:station:USF.COMPS:SHP:1,2011-02-02T18:00:00Z,30.0600,-84.2910,19.1,1111122 
COMPS,ioos:station:USF.COMPS:SHP:1,2011-02-02T18:06:00Z,30.0600,-84.2910,19.18,1111122 
COMPS,ioos:station:USF.COMPS:SHP:1,2011-02-02T18:12:00Z,30.0600,-84.2910,19.33,1111122 
COMPS,ioos:station:USF.COMPS:SHP:1,2011-02-02T18:18:00Z,30.0600,-84.2910,19.49,1111122 
COMPS,ioos:station:USF.COMPS:SHP:1,2011-02-02T18:24:00Z,30.0600,-84.2910,19.05,1111122 
COMPS,ioos:station:USF.COMPS:SHP:1,2011-02-02T18:30:00Z,30.0600,-84.2910,19.0,1111122 
COMPS,ioos:station:USF.COMPS:SHP:1,2011-02-02T18:36:00Z,30.0600,-84.2910,19.11,1111122 
COMPS,ioos:station:USF.COMPS:SHP:1,2011-02-02T18:42:00Z,30.0600,-84.2910,19.14,1111122 
COMPS,ioos:station:USF.COMPS:SHP:1,2011-02-02T18:48:00Z,30.0600,-84.2910,19.21,1111122 
COMPS,ioos:station:USF.COMPS:SHP:1,2011-02-02T18:54:00Z,30.0600,-84.2910,18.82,1111122 
COMPS,ioos:station:USF.COMPS:SHP:1,2011-02-02T19:00:00Z,30.0600,-84.2910,18.8,1111122 
COMPS,ioos:station:USF.COMPS:SHP:1,2011-02-02T19:06:00Z,30.0600,-84.2910,19.15,1111122 
COMPS,ioos:station:USF.COMPS:SHP:1,2011-02-02T19:12:00Z,30.0600,-84.2910,19.14,1111122 
COMPS,ioos:station:USF.COMPS:SHP:1,2011-02-02T19:18:00Z,30.0600,-84.2910,19.04,1111122 
COMPS,ioos:station:USF.COMPS:SHP:1,2011-02-02T19:24:00Z,30.0600,-84.2910,19.12,1111122 
COMPS,ioos:station:USF.COMPS:SHP:1,2011-02-02T19:30:00Z,30.0600,-84.2910,19.28,1111122 
COMPS,ioos:station:USF.COMPS:SHP:1,2011-02-02T19:36:00Z,30.0600,-84.2910,19.09,1111122 
COMPS,ioos:station:USF.COMPS:SHP:1,2011-02-02T19:42:00Z,30.0600,-84.2910,19.15,1111122 
COMPS,ioos:station:USF.COMPS:SHP:1,2011-02-02T19:48:00Z,30.0600,-84.2910,19.11,1111122 
COMPS,ioos:station:USF.COMPS:SHP:1,2011-02-02T19:54:00Z,30.0600,-84.2910,19.23,1111122 
COMPS,ioos:station:USF.COMPS:SHP:1,2011-02-02T20:00:00Z,30.0600,-84.2910,19.2,1111122 
COMPS,ioos:station:USF.COMPS:SHP:1,2011-02-02T20:06:00Z,30.0600,-84.2910,18.88,1111122 
COMPS,ioos:station:USF.COMPS:SHP:1,2011-02-02T20:12:00Z,30.0600,-84.2910,18.93,1111122 
COMPS,ioos:station:USF.COMPS:SHP:1,2011-02-02T20:18:00Z,30.0600,-84.2910,18.94,1111122 
COMPS,ioos:station:USF.COMPS:SHP:1,2011-02-02T20:24:00Z,30.0600,-84.2910,18.85,1111122 
COMPS,ioos:station:USF.COMPS:SHP:1,2011-02-02T20:30:00Z,30.0600,-84.2910,18.69,1111122 
COMPS,ioos:station:USF.COMPS:SHP:1,2011-02-02T20:36:00Z,30.0600,-84.2910,18.64,1111122 
COMPS,ioos:station:USF.COMPS:SHP:1,2011-02-02T20:42:00Z,30.0600,-84.2910,18.63,1111122 
COMPS,ioos:station:USF.COMPS:SHP:1,2011-02-02T20:48:00Z,30.0600,-84.2910,18.51,1111122 
COMPS,ioos:station:USF.COMPS:SHP:1,2011-02-02T20:54:00Z,30.0600,-84.2910,18.41,1111122 
COMPS,ioos:station:USF.COMPS:SHP:1,2011-02-02T21:00:00Z,30.0600,-84.2910,18.4,1111122 
COMPS,ioos:station:USF.COMPS:SHP:1,2011-02-02T22:00:00Z,30.0600,-84.2910,17.4,1111122 
COMPS,ioos:station:USF.COMPS:SHP:1,2011-02-02T23:00:00Z,30.0600,-84.2910,15.7,1111122 
COMPS,ioos:station:USF.COMPS:SHP:1,2011-02-02T23:06:00Z,30.0600,-84.2910,15.33,1111122 
COMPS,ioos:station:USF.COMPS:SHP:1,2011-02-02T23:12:00Z,30.0600,-84.2910,15.35,1111122 
COMPS,ioos:station:USF.COMPS:SHP:1,2011-02-02T23:18:00Z,30.0600,-84.2910,15.2,1111122 
COMPS,ioos:station:USF.COMPS:SHP:1,2011-02-02T23:24:00Z,30.0600,-84.2910,15.13,1111122 
COMPS,ioos:station:USF.COMPS:SHP:1,2011-02-02T23:30:00Z,30.0600,-84.2910,15.0,1111122 
COMPS,ioos:station:USF.COMPS:SHP:1,2011-02-02T23:36:00Z,30.0600,-84.2910,14.9,1111122 
COMPS,ioos:station:USF.COMPS:SHP:1,2011-02-02T23:42:00Z,30.0600,-84.2910,14.78,1111122 
COMPS,ioos:station:USF.COMPS:SHP:1,2011-02-02T23:48:00Z,30.0600,-84.2910,14.55,1111122 
COMPS,ioos:station:USF.COMPS:SHP:1,2011-02-02T23:54:00Z,30.0600,-84.2910,14.44,1111122 
COMPS,ioos:station:USF.COMPS:SHP:1,2011-02-03T00:00:00Z,30.0600,-84.2910,14.4,1111122 
COMPS,ioos:station:USF.COMPS:SHP:1,2011-02-03T01:00:00Z,30.0600,-84.2910,13.7,1111122 
COMPS,ioos:station:USF.COMPS:SHP:1,2011-02-03T01:06:00Z,30.0600,-84.2910,13.33,1111122 
COMPS,ioos:station:USF.COMPS:SHP:1,2011-02-03T01:12:00Z,30.0600,-84.2910,13.28,1111122 
COMPS,ioos:station:USF.COMPS:SHP:1,2011-02-03T01:18:00Z,30.0600,-84.2910,13.3,1111122 
COMPS,ioos:station:USF.COMPS:SHP:1,2011-02-03T01:24:00Z,30.0600,-84.2910,13.18,1111122 
COMPS,ioos:station:USF.COMPS:SHP:1,2011-02-03T01:30:00Z,30.0600,-84.2910,13.06,1111122 
COMPS,ioos:station:USF.COMPS:SHP:1,2011-02-03T01:36:00Z,30.0600,-84.2910,13.03,1111122 
COMPS,ioos:station:USF.COMPS:SHP:1,2011-02-03T01:42:00Z,30.0600,-84.2910,12.96,1111122 
COMPS,ioos:station:USF.COMPS:SHP:1,2011-02-03T01:48:00Z,30.0600,-84.2910,12.8,1111122 
COMPS,ioos:station:USF.COMPS:SHP:1,2011-02-03T01:54:00Z,30.0600,-84.2910,12.6,1111122 
COMPS,ioos:station:USF.COMPS:SHP:1,2011-02-03T02:00:00Z,30.0600,-84.2910,12.6,1111122 
COMPS,ioos:station:USF.COMPS:SHP:1,2011-02-03T03:00:00Z,30.0600,-84.2910,11.4,1111122 
COMPS,ioos:station:USF.COMPS:SHP:1,2011-02-03T04:00:00Z,30.0600,-84.2910,9.8,1111122 
COMPS,ioos:station:USF.COMPS:SHP:1,2011-02-03T05:00:00Z,30.0600,-84.2910,9.3,1111122 
COMPS,ioos:station:USF.COMPS:SHP:1,2011-02-03T06:00:00Z,30.0600,-84.2910,9.0,1111122 
COMPS,ioos:station:USF.COMPS:SHP:1,2011-02-03T06:06:00Z,30.0600,-84.2910,8.72,1111122 
COMPS,ioos:station:USF.COMPS:SHP:1,2011-02-03T06:12:00Z,30.0600,-84.2910,8.64,1111122 
COMPS,ioos:station:USF.COMPS:SHP:1,2011-02-03T06:18:00Z,30.0600,-84.2910,8.69,1111122 
COMPS,ioos:station:USF.COMPS:SHP:1,2011-02-03T06:24:00Z,30.0600,-84.2910,8.5,1111122 
COMPS,ioos:station:USF.COMPS:SHP:1,2011-02-03T06:30:00Z,30.0600,-84.2910,8.52,1111122 
COMPS,ioos:station:USF.COMPS:SHP:1,2011-02-03T06:36:00Z,30.0600,-84.2910,8.49,1111122 
COMPS,ioos:station:USF.COMPS:SHP:1,2011-02-03T06:42:00Z,30.0600,-84.2910,8.52,1111122 
COMPS,ioos:station:USF.COMPS:SHP:1,2011-02-03T06:48:00Z,30.0600,-84.2910,8.31,1111122 
COMPS,ioos:station:USF.COMPS:SHP:1,2011-02-03T06:54:00Z,30.0600,-84.2910,8.18,1111122 
COMPS,ioos:station:USF.COMPS:SHP:1,2011-02-03T07:00:00Z,30.0600,-84.2910,8.2,1111122 
COMPS,ioos:station:USF.COMPS:SHP:1,2011-02-03T07:06:00Z,30.0600,-84.2910,8.16,1111122 
COMPS,ioos:station:USF.COMPS:SHP:1,2011-02-03T07:12:00Z,30.0600,-84.2910,7.99,1111122 
COMPS,ioos:station:USF.COMPS:SHP:1,2011-02-03T07:18:00Z,30.0600,-84.2910,7.9,1111122 
COMPS,ioos:station:USF.COMPS:SHP:1,2011-02-03T07:24:00Z,30.0600,-84.2910,7.9,1111122 
COMPS,ioos:station:USF.COMPS:SHP:1,2011-02-03T07:30:00Z,30.0600,-84.2910,7.91,1111122 
COMPS,ioos:station:USF.COMPS:SHP:1,2011-02-03T07:36:00Z,30.0600,-84.2910,7.98,1111122 
COMPS,ioos:station:USF.COMPS:SHP:1,2011-02-03T07:42:00Z,30.0600,-84.2910,7.94,1111122 
COMPS,ioos:station:USF.COMPS:SHP:1,2011-02-03T07:48:00Z,30.0600,-84.2910,7.93,1111122 
COMPS,ioos:station:USF.COMPS:SHP:1,2011-02-03T07:54:00Z,30.0600,-84.2910,8.01,1111122 
COMPS,ioos:station:USF.COMPS:SHP:1,2011-02-03T08:00:00Z,30.0600,-84.2910,8.0,1111122 
COMPS,ioos:station:USF.COMPS:SHP:1,2011-02-03T09:00:00Z,30.0600,-84.2910,7.6,1111122 
COMPS,ioos:station:USF.COMPS:SHP:1,2011-02-03T10:00:00Z,30.0600,-84.2910,7.2,1111122 
COMPS,ioos:station:USF.COMPS:SHP:1,2011-02-03T11:00:00Z,30.0600,-84.2910,7.5,1111122 
COMPS,ioos:station:USF.COMPS:SHP:1,2011-02-03T11:06:00Z,30.0600,-84.2910,7.42,1111122 
COMPS,ioos:station:USF.COMPS:SHP:1,2011-02-03T11:12:00Z,30.0600,-84.2910,7.43,1111122 
COMPS,ioos:station:USF.COMPS:SHP:1,2011-02-03T11:18:00Z,30.0600,-84.2910,7.61,1111122 
COMPS,ioos:station:USF.COMPS:SHP:1,2011-02-03T11:24:00Z,30.0600,-84.2910,7.43,1111122 
COMPS,ioos:station:USF.COMPS:SHP:1,2011-02-03T11:30:00Z,30.0600,-84.2910,7.49,1111122 
COMPS,ioos:station:USF.COMPS:SHP:1,2011-02-03T11:36:00Z,30.0600,-84.2910,7.51,1111122 
COMPS,ioos:station:USF.COMPS:SHP:1,2011-02-03T11:42:00Z,30.0600,-84.2910,7.66,1111122 
COMPS,ioos:station:USF.COMPS:SHP:1,2011-02-03T11:48:00Z,30.0600,-84.2910,7.56,1111122 
COMPS,ioos:station:USF.COMPS:SHP:1,2011-02-03T11:54:00Z,30.0600,-84.2910,7.51,1111122 
COMPS,ioos:station:USF.COMPS:SHP:1,2011-02-03T12:00:00Z,30.0600,-84.2910,7.5,1111122 
COMPS,ioos:station:USF.COMPS:SHP:1,2011-02-03T12:06:00Z,30.0600,-84.2910,7.59,1111122 
COMPS,ioos:station:USF.COMPS:SHP:1,2011-02-03T12:12:00Z,30.0600,-84.2910,7.56,1111122 
COMPS,ioos:station:USF.COMPS:SHP:1,2011-02-03T12:18:00Z,30.0600,-84.2910,7.4,1111122 
COMPS,ioos:station:USF.COMPS:SHP:1,2011-02-03T12:24:00Z,30.0600,-84.2910,7.37,1111122 
COMPS,ioos:station:USF.COMPS:SHP:1,2011-02-03T12:30:00Z,30.0600,-84.2910,7.34,1111122 
COMPS,ioos:station:USF.COMPS:SHP:1,2011-02-03T12:36:00Z,30.0600,-84.2910,7.32,1111122 
COMPS,ioos:station:USF.COMPS:SHP:1,2011-02-03T12:42:00Z,30.0600,-84.2910,7.29,1111122 
COMPS,ioos:station:USF.COMPS:SHP:1,2011-02-03T12:48:00Z,30.0600,-84.2910,7.21,1111122 
COMPS,ioos:station:USF.COMPS:SHP:1,2011-02-03T12:54:00Z,30.0600,-84.2910,7.2,1111122 
COMPS,ioos:station:USF.COMPS:SHP:1,2011-02-03T13:00:00Z,30.0600,-84.2910,7.2,1111122 
COMPS,ioos:station:USF.COMPS:SHP:1,2011-02-03T14:00:00Z,30.0600,-84.2910,7.6,1111122 
COMPS,ioos:station:USF.COMPS:SHP:1,2011-02-03T15:00:00Z,30.0600,-84.2910,8.4,1111122 
COMPS,ioos:station:USF.COMPS:SHP:1,2011-02-03T15:06:00Z,30.0600,-84.2910,8.64,1111122 
COMPS,ioos:station:USF.COMPS:SHP:1,2011-02-03T15:12:00Z,30.0600,-84.2910,8.9,1111122 
COMPS,ioos:station:USF.COMPS:SHP:1,2011-02-03T15:18:00Z,30.0600,-84.2910,8.94,1111122 
COMPS,ioos:station:USF.COMPS:SHP:1,2011-02-03T15:24:00Z,30.0600,-84.2910,9.14,1111122 
COMPS,ioos:station:USF.COMPS:SHP:1,2011-02-03T15:30:00Z,30.0600,-84.2910,9.26,1111122 
COMPS,ioos:station:USF.COMPS:SHP:1,2011-02-03T15:36:00Z,30.0600,-84.2910,9.38,1111122 
COMPS,ioos:station:USF.COMPS:SHP:1,2011-02-03T15:42:00Z,30.0600,-84.2910,9.5,1111122 
COMPS,ioos:station:USF.COMPS:SHP:1,2011-02-03T15:48:00Z,30.0600,-84.2910,9.56,1111122 
COMPS,ioos:station:USF.COMPS:SHP:1,2011-02-03T15:54:00Z,30.0600,-84.2910,10.03,1111122 
COMPS,ioos:station:USF.COMPS:SHP:1,2011-02-03T16:00:00Z,30.0600,-84.2910,10.0,1111122 
COMPS,ioos:station:USF.COMPS:SHP:1,2011-02-03T17:00:00Z,30.0600,-84.2910,12.4,1111122 
COMPS,ioos:station:USF.COMPS:SHP:1,2011-02-03T18:00:00Z,30.0600,-84.2910,14.2,1111122 
COMPS,ioos:station:USF.COMPS:SHP:1,2011-02-03T19:00:00Z,30.0600,-84.2910,15.4,1111122 
COMPS,ioos:station:USF.COMPS:SHP:1,2011-02-03T20:00:00Z,30.0600,-84.2910,15.6,1111122 
COMPS,ioos:station:USF.COMPS:SHP:1,2011-02-03T20:06:00Z,30.0600,-84.2910,15.52,1111122 
COMPS,ioos:station:USF.COMPS:SHP:1,2011-02-03T20:12:00Z,30.0600,-84.2910,15.44,1111122 
COMPS,ioos:station:USF.COMPS:SHP:1,2011-02-03T20:18:00Z,30.0600,-84.2910,15.41,1111122 
COMPS,ioos:station:USF.COMPS:SHP:1,2011-02-03T20:24:00Z,30.0600,-84.2910,15.24,1111122 
COMPS,ioos:station:USF.COMPS:SHP:1,2011-02-03T20:30:00Z,30.0600,-84.2910,15.12,1111122 
COMPS,ioos:station:USF.COMPS:SHP:1,2011-02-03T20:36:00Z,30.0600,-84.2910,15.02,1111122 
COMPS,ioos:station:USF.COMPS:SHP:1,2011-02-03T20:42:00Z,30.0600,-84.2910,14.92,1111122 
COMPS,ioos:station:USF.COMPS:SHP:1,2011-02-03T20:48:00Z,30.0600,-84.2910,14.92,1111122 
COMPS,ioos:station:USF.COMPS:SHP:1,2011-02-03T20:54:00Z,30.0600,-84.2910,14.89,1111122 
COMPS,ioos:station:USF.COMPS:SHP:1,2011-02-03T21:00:00Z,30.0600,-84.2910,14.9,1111122 
COMPS,ioos:station:USF.COMPS:SHP:1,2011-02-03T22:00:00Z,30.0600,-84.2910,14.2,1111122 
COMPS,ioos:station:USF.COMPS:SHP:1,2011-02-03T23:00:00Z,30.0600,-84.2910,13.8,1111122 
COMPS,ioos:station:USF.COMPS:SHP:1,2011-02-04T00:00:00Z,30.0600,-84.2910,13.3,1111122 
COMPS,ioos:station:USF.COMPS:SHP:1,2011-02-04T00:06:00Z,30.0600,-84.2910,13.11,1111122 
COMPS,ioos:station:USF.COMPS:SHP:1,2011-02-04T00:12:00Z,30.0600,-84.2910,13.03,1111122 
COMPS,ioos:station:USF.COMPS:SHP:1,2011-02-04T00:18:00Z,30.0600,-84.2910,12.77,1111122 